Other Surface Observations
Issued by NWS

Home | Current Version | Previous Version | Text Only | Print | Product List | Glossary On
Versions: 1 2 3 4 5 6 7 8 9 10 11 12 13 14 15 16 17 18 19 20 21 22 23 24 25 26 27 28 29 30 31 32 33 34 35 36 37 38 39 40 41 42 43 44 45 46 47 48 49 50
000
SXUS52 KTAE 291818
OSOTAE
OSOTAE
North Florida/South Alabama/Southwest Georgia Weather Roundup
National Weather Service Tallahassee Florida
100 PM EST THU JAN 29 2015

Note: "fair" indicates few or no clouds below 12,000 feet with no
significant weather and/or obstructions to visibility.

!FLZ017-115-028-034-025-291900
...North Florida...

CITY           SKY/WX    TMP DP  RH WIND       PRES   REMARKS
TALLAHASSEE    MOSUNNY   61  30  31 SE9       30.29F
APALACHICOLA   SUNNY     62  45  53 S10       30.30F
PERRY          SUNNY     62  36  37 S6        30.31F
CROSS CITY       N/A     65  43  44 SE6       30.28F
JACKSONVILLE   PTSUNNY   63  44  50 VRB3      30.29F
$$

!FLZ112-006-005-002-011-291900
...Florida Panhandle...

CITY           SKY/WX    TMP DP  RH WIND       PRES   REMARKS
MARIANNA       SUNNY     62  42  47 S7        30.28F
BONIFAY        FAIR      62  45  53 S8        30.28F
PANAMA CITY NW FAIR      61  49  64 SE14G20   30.29F
TYNDALL AFB    SUNNY     62  48  60 SE16      30.29F
TYND DRONE APT FAIR      62  49  61 SE15G21   30.28F
DE FUNIAK SPR  FAIR      63  48  58 S10       30.28F
EGLIN AFB      SUNNY     63  53  67 SE9       30.28F
DESTIN         SUNNY     63  54  72 SE10      30.28F
HURLBURT       SUNNY     64  48  56 SE8       30.27F
CRESTVIEW      MOSUNNY   64  51  62 S13G18    30.29F
PENSACOLA      MOSUNNY   66  50  56 S13       30.27F
$$

!ALZ063-066-291900
...South Alabama...

CITY           SKY/WX    TMP DP  RH WIND       PRES   REMARKS
DOTHAN         SUNNY     61  41  47 S13       30.31F
OZARK CAIRNS   SUNNY     61  41  47 S8        30.27F
FT RUCKER HELI SUNNY     61  42  49 S10       30.27F
RUCKER HELI 3  FAIR      60  43  52 SW7G16    30.29F
RUCKER HELI 2  FAIR      60  41  49 VRB5      30.27F
FLORALA APT    SUNNY     64  46  52 S10       30.28F
ANDALUSIA      SUNNY     67  43  41 W7        30.27F
TROY           SUNNY     61  37  41 SW9       30.27F
EUFALA         FAIR      60  35  39 SE10      30.26F
MOBILE         MOSUNNY   69  51  52 S14       30.27F
$$

!GAZ120>161-291900
...Southwest and South Central Georgia...

CITY           SKY/WX    TMP DP  RH WIND       PRES   REMARKS
THOMASVILLE    FAIR      61  32  33 SW8       30.30F
BAINBRIDGE     SUNNY     63  36  36 S6        30.30F
MOODY AFB      MOSUNNY   60  28  29 S10       30.28F
VALDOSTA       MOSUNNY   60  31  33 S8        30.30F
MOULTRIE       PTSUNNY   57  32  38 S5        30.29F
BLAKELY        SUNNY     61  36  39 S7        30.29F
ALBANY         PTSUNNY   57  30  35 S6        30.30F
TIFTON         FAIR      55  27  33 S9        30.28F
FITZGERALD     FAIR      58  23  26 S7        30.31F
CORDELE        FAIR      56  27  32 SW5       30.31F
AMERICUS       FAIR      54  34  47 S6        30.29F
HOMERVILLE     FAIR      63  39  42 S8        30.29F
$$

!GMZ750-755-770-775-291900
...Coastal and Buoy Obs...

STATION/POSITION TIME  TEMP    WIND        PRES    VSBY  WAVE
                       AIR SEA DIR/SP/G                  HT/PER
                 (UTC) (F)     (DEG/KT/KT) (MB)    (MI)  (FT/S)
KEATON BEACH     1800   54     230/  6/  7 1026.2F
CEDAR KEY        1755   57     130/  4/  4 1025.8F
C TOWER          1800   57     120/  9/ 10 1025.6F
APALACHICOLA BUO 1800   60 68  130/ 10/ 12 1025.5F         3/ 5
PANAMA CITY BUOY 1714   63 70  160/ 12/ 16 1025.2F         2/ 5
MOBILE BUOY      1654   66 69  180/  8/ 12 1025.4S         2/ 4
ORANGE BCH AL BU 1800   64 63  180/  8/ 10 1024.7F         2/ 4
$$



USA.gov is the U.S. government's official web portal to all federal, state and local government web resources and services.